Location: College Rock
(37.2713°N, 119.1740°W)
Time: 13:13:34
(UTC+00:00)

ALOS - Pass Details

Date: 29 October 2020
Orbit: 684 x 684 km, 97.9° (Epoch: 01 December)

Event Time Altitude Azimuth Distance (km) Brightness Sun altitude
Rises 12:20:28 0° 15° (NNE) 3,054 5.8 -24.1°
Reaches altitude 10° 12:22:44 10° 18° (NNE) 2,135 5.0 -23.6°
Maximum altitude 12:27:23 68° 101° (E) 736 2.5 -22.7°
Drops below altitude 10° 12:32:00 10° 185° (S) 2,120 4.7 -21.8°
Sets 12:34:14 0° 187° (S) 3,031 5.5 -21.3°
